Home > Weather > São Tomé > Past weeks

Flag for Sao Tome and Principe Past Weather in São Tomé, Sao Tome and Principe — Yesterday and Last 2 Weeks

Now
77 °F

Partly sunny.


Feels Like: 78 °F
Forecast: 75 / 80 °F
Wind: 12 mph from South

Location: S. Tome

Current Time: Jul 26, 2016 at 8:30:53 AM

Latest Report: Jul 26, 2016 at 7:00 AM


Visibility: N/A

Pressure: 29.95 "Hg

Humidity: 83%

Dew Point: 72 °F

Location of São ToméLocation

Past Weather in São Tomé — Graph

°F

São Tomé Temperature Yesterday

Maximum temperature yesterday: 84 °F (at 9:00 AM)
Minimum temperature yesterday: 75 °F (at 5:00 AM)
Average temperature yesterday: 80 °F

High & Low Weather Summary for the Past Weeks

 TemperatureHumidityPressure
High90 °F (Jul 14, 10:00 AM)94% (Jul 12, 5:00 AM)30.01 "Hg (Jul 12, 5:00 AM)
Low72 °F (Jul 16, 6:00 AM)59% (Jul 15, 1:00 PM)29.86 "Hg (Jul 15, 3:00 PM)
Average81 °F79%29.94 "Hg
* Reported Jul 11 7:00 AM — Jul 26 7:00 AM, São Tomé, Weather by CustomWeather, © 2016

Note: Actual official high and low records may vary slightly from our data, if they occured in-between our weather recording intervals... More about our weather records

Advertising

São Tomé Weather History for the Previous 24 Hours

Scroll right to see more
 ConditionsComfort  
Time TempWeatherWind HumidityBarometerVisibility
7:00 AM
Tue, Jul 26
77 °FPartly sunny.12 mph83%29.95 "HgN/A
6:00 AM77 °FBroken clouds.12 mph83%29.95 "HgN/A
4:00 AM77 °FPassing clouds.16 mph83%29.92 "HgN/A
1:00 AM77 °FPassing clouds.12 mph83%29.95 "HgN/A
12:00 AM77 °FPassing clouds.12 mph83%29.95 "HgN/A
11:00 PM
Mon, Jul 25
79 °FPassing clouds.12 mph79%29.95 "HgN/A
10:00 PM79 °FPassing clouds.14 mph79%29.95 "HgN/A
8:00 PM79 °FPassing clouds.14 mph79%29.92 "HgN/A
7:00 PM79 °FPassing clouds.14 mph79%29.92 "HgN/A
6:00 PM79 °FPassing clouds.N/A84%29.92 "HgN/A
5:00 PM81 °FPartly sunny.14 mph79%29.89 "HgN/A
3:00 PM82 °FPartly sunny.16 mph74%29.89 "HgN/A
2:00 PM84 °FPartly sunny.14 mph70%29.92 "HgN/A
1:00 PM82 °FPartly sunny.12 mph74%29.92 "HgN/A
12:00 PM82 °FPartly sunny.9 mph79%29.95 "HgN/A
11:00 AM84 °FPartly sunny.14 mph70%29.98 "HgN/A
10:00 AM82 °FPartly sunny.2 mph74%29.98 "HgN/A
9:00 AM84 °FPartly sunny.2 mph70%29.98 "HgN/A
8:00 AM81 °FPartly sunny.5 mph79%29.98 "HgN/A
Weather by CustomWeather, © 2016

See weather overviewHow to use our weather pages